Flag for China

Past Weather in Changsha, Hunan, China — Yesterday and Last 2 Weeks

Now
66 °F

Light rain. Passing clouds.


Feels Like: 66 °F
Forecast: 77 / 65 °F
Wind: 3 mph from Northwest

Location: Changsha
Current Time: Sep 24, 2020 at 12:17:05 am
Latest Report: Sep 23, 2020 at 11:00 pm
Visibility: 4 mi
Pressure30.04 "Hg
Humidity: 100%
Dew Point: 66 °F
Location of ChangshaLocation

Past Weather in Changsha — Graph

°F

Changsha Temperature Yesterday

Maximum temperature yesterday: 70 °F (at 11:00 am)
Minimum temperature yesterday: 64 °F (at 12:00 am)
Average temperature yesterday: 66 °F

High & Low Weather Summary for the Past Weeks

 TemperatureHumidityPressure
High95 °F (Sep 9, 1:00 pm)100% (Sep 10, 9:00 am)30.09 "Hg (Sep 10, 9:00 am)
Low63 °F (Sep 17, 7:00 pm)47% (Sep 9, 1:00 pm)29.65 "Hg (Sep 10, 5:00 am)
Average73 °F89%29.91 "Hg
* Reported Sep 8 11:00 pm — Sep 23 11:00 pm, Changsha. Weather by CustomWeather, © 2020

Note: Actual official high and low records may vary slightly from our data, if they occured in-between our weather recording intervals... More about our weather records

Changsha Weather History for the Previous 24 Hours

Scroll right to see more
 ConditionsComfort  
Time TempWeatherWind HumidityBarometerVisibility
11:00 pm
Wed, Sep 23
66 °FLight rain. Passing clouds.3 mph100%30.04 "Hg4 mi
10:00 pm66 °FPassing clouds.3 mph100%30.04 "Hg4 mi
9:00 pm66 °FLight rain. Passing clouds.3 mph100%30.04 "Hg4 mi
8:00 pm66 °FLight rain. Passing clouds.3 mph94%30.01 "Hg4 mi
7:00 pm66 °FPassing clouds.3 mph100%30.01 "Hg4 mi
6:00 pm68 °FLight rain. Broken clouds.3 mph94%29.98 "Hg4 mi
5:00 pm68 °FDrizzle. Broken clouds.6 mph94%29.98 "Hg4 mi
4:00 pm68 °FLight rain. Broken clouds.8 mph94%29.98 "Hg5 mi
3:00 pm68 °FLight rain. Broken clouds.8 mph94%29.98 "HgN/A
2:00 pm68 °FLight rain. Partly sunny.8 mph94%29.98 "HgN/A
1:00 pm70 °FLight rain. Partly sunny.8 mph83%30.01 "HgN/A
12:00 pm70 °FLight rain. Partly sunny.8 mph88%30.01 "HgN/A
11:00 am70 °FLight rain. Partly sunny.8 mph88%30.04 "HgN/A
10:00 am68 °FPartly sunny.10 mph88%30.04 "HgN/A
9:00 am66 °FPartly sunny.8 mph94%30.04 "HgN/A
8:00 am66 °FLight rain. Broken clouds.8 mph100%30.01 "HgN/A
7:00 am64 °FBroken clouds.6 mph100%29.98 "HgN/A
6:00 am64 °FClear.8 mph100%29.98 "Hg10 mi
5:00 am64 °FRain. Overcast.10 mph100%29.98 "HgN/A
4:00 am64 °FLight rain. Overcast.10 mph100%29.98 "HgN/A
3:00 am64 °FMostly cloudy.8 mph100%29.95 "HgN/A
2:00 am64 °FMostly cloudy.10 mph100%29.95 "HgN/A
1:00 am64 °FLight rain. Mostly cloudy.10 mph100%29.98 "HgN/A
12:00 am64 °FLight rain. Mostly cloudy.8 mph100%29.98 "HgN/A
Weather by CustomWeather, © 2020

See weather overview